Terminal Aerodrome Forecast
Issued by NWS

Home | Current Version | Previous Version | Text Only | Print | Product List | Glossary On
Versions: 1 2 3 4 5 6 7 8 9 10 11 12 13 14 15 16 17 18 19 20 21 22 23 24 25 26 27 28 29 30 31 32 33 34 35 36 37
000
FTUS45 KCYS 261124
TAFAIA
TAF
KAIA 261124Z 2612/2712 01013KT 2SM -SN SCT008 OVC015
     FM261500 01009KT 4SM -SHSN OVC015
     FM261800 36010KT P6SM VCSH OVC020
     FM270200 28005KT P6SM OVC050=

USA.gov is the U.S. government's official web portal to all federal, state and local government web resources and services.